sat.trackr.live / text

‹ back to catalog

TIANHUI 2-02A

NORAD 49071 · 2021-074A

PAYLOAD ACTIVE UNKNOWN

§ Identity

Operator
Country
PRC
Launch date
2021-08-18
Launch site
TAISC
Launch vehicle
Mass (kg)
RCS (m²)

External: N2YO · Heavens-Above · Gunter

§ Orbital elements

Epoch: 2026-09-20T14:12:31.219200Z

Period
94.94 min
Inclination
97.4863°
Eccentricity
0.0001824
Mean motion
15.16736873 rev/d
Perigee alt
514.5 km
Apogee alt
517.0 km
Semi-major
6,893.8 km
B*
5.1092e-5
RAAN
265.5861°
Arg perigee
105.2753°
Mean anomaly
254.8682°
Rev number
28,173

§ Raw data

TIANHUI 2-02A1 49071U 21074A   26263.59202800  .00000935  00000+0  51092-4 0  99972 49071  97.4863 265.5861 0001824 105.2753 254.8682 15.16736873281734

JSON: /api/v1/satellites/49071 · /tle

For live sub-satellite position, see the globe view (requires WebGL).

§ Visibility from observer

Set your observer location to see the next 7 days of passes ≥ 10°. The values pass through the URL so the page stays shareable.

No JS? Fill the form by hand. The geolocation button needs JavaScript.